Orbital Elements at Epoch 2459200.5 (2020-Dec-17.0) TDB
Reference: JPL 27 (heliocentric ecliptic J2000)
Element | Value | Uncertainty (1-sigma) | Units |
e | .1513322405816323 | 3.13e-08 | |
a | 2.245079497674451 | 6.5612e-09 | au |
q | 1.90532658700749 | 7.056e-08 | au |
i | 4.892666911242171 | 3.9118e-06 | deg |
node | 202.1238995070435 | 4.3128e-05 | deg |
peri | 84.36770983821539 | 4.542e-05 | deg |
M | 149.2926190717924 | 1.6175e-05 | deg |
tp | 2458690.955815928481 (2019-Jul-26.45581593) | 5.4193e-05 | TDB |
period | 1228.700436808169 3.36 | 5.3863e-06 1.475e-08 | d yr |
n | .2929924896382249 | 1.2844e-09 | deg/d |
Q | 2.584832408341411 | 7.5541e-09 | au |
|
| | Orbit Determination Parameters
Additional Information
|